| time (UTC) | temp F | wind direction | speed MPH | gust MPH | rain 1hr in | rain 24hr in | rain mn in | humidity % | barometer mb |
| 20260505113047 | 68 | 187 | 10.0 | 14.0 | 0.00 | 0.01 | 0.00 | 93 | 1009.3 |
| 20260505111546 | 68 | 174 | 12.0 | 18.0 | 0.00 | 0.01 | 0.00 | 93 | 1008.8 |
| 20260505101551 | 68 | 171 | 9.0 | 13.0 | 0.00 | 0.01 | 0.00 | 92 | 1009.0 |
| 20260505100048 | 68 | 167 | 11.0 | 14.0 | 0.00 | 0.01 | 0.00 | 91 | 1008.8 |
| 20260505094552 | 68 | 165 | 11.0 | 13.0 | 0.00 | 0.01 | 0.00 | 91 | 1009.0 |
| 20260505093053 | 68 | 186 | 10.0 | 12.0 | 0.00 | 0.01 | 0.00 | 91 | 1009.2 |
| 20260505091543 | 68 | 175 | 9.0 | 14.0 | 0.00 | 0.01 | 0.00 | 90 | 1009.4 |
| 20260505090053 | 68 | 182 | 10.0 | 13.0 | 0.00 | 0.01 | 0.00 | 90 | 1009.4 |
| 20260505084554 | 69 | 171 | 9.0 | 12.0 | 0.00 | 0.01 | 0.00 | 89 | 1009.4 |
| 20260505083058 | 69 | 171 | 8.0 | 11.0 | 0.00 | 0.01 | 0.00 | 89 | 1009.7 |
| 20260505081558 | 69 | 175 | 8.0 | 12.0 | 0.00 | 0.01 | 0.00 | 88 | 1009.9 |
| 20260505080051 | 69 | 171 | 10.0 | 13.0 | 0.00 | 0.01 | 0.00 | 88 | 1009.6 |
| 20260505074542 | 70 | 176 | 10.0 | 12.0 | 0.00 | 0.02 | 0.00 | 87 | 1009.8 |
| 20260505073049 | 70 | 198 | 11.0 | 15.0 | 0.00 | 0.02 | 0.00 | 86 | 1009.9 |
| 20260505071550 | 70 | 194 | 11.0 | 15.0 | 0.00 | 0.02 | 0.00 | 86 | 1010.1 |
| 20260505070048 | 71 | 201 | 13.0 | 18.0 | 0.00 | 0.02 | 0.00 | 85 | 1010.2 |
| 20260505064549 | 71 | 191 | 13.0 | 18.0 | 0.00 | 0.02 | 0.00 | 85 | 1010.5 |
| 20260505063051 | 71 | 194 | 14.0 | 18.0 | 0.00 | 0.02 | 0.00 | 84 | 1010.4 |
| 20260505061550 | 71 | 201 | 14.0 | 19.0 | 0.00 | 0.02 | 0.00 | 83 | 1010.4 |
| 20260505060052 | 72 | 198 | 16.0 | 24.0 | 0.00 | 0.02 | 0.00 | 83 | 1010.6 |
| 20260505054556 | 72 | 197 | 17.0 | 22.0 | 0.00 | 0.02 | 0.00 | 82 | 1010.5 |
| 20260505053047 | 72 | 200 | 17.0 | 23.0 | 0.00 | 0.02 | 0.00 | 83 | 1010.7 |
| 20260505051544 | 72 | 198 | 18.0 | 22.0 | 0.00 | 0.02 | 0.00 | 82 | 1010.9 |
| 20260505041549 | 71 | 188 | 16.0 | 23.0 | 0.01 | 0.02 | 0.02 | 83 | 1011.0 |
| 20260505040047 | 71 | 186 | 17.0 | 25.0 | 0.01 | 0.02 | 0.02 | 82 | 1011.2 |
| 20260505034552 | 71 | 186 | 17.0 | 22.0 | 0.00 | 0.01 | 0.01 | 82 | 1011.1 |
| 20260505033049 | 71 | 186 | 18.0 | 23.0 | 0.00 | 0.01 | 0.01 | 82 | 1011.2 |
| 20260505031557 | 71 | 177 | 18.0 | 25.0 | 0.00 | 0.01 | 0.01 | 82 | 1011.2 |
| 20260505024551 | 72 | 181 | 19.0 | 25.0 | 0.00 | 0.01 | 0.01 | 80 | 1011.1 |
| 20260505023048 | 72 | 179 | 18.0 | 26.0 | 0.00 | 0.01 | 0.01 | 79 | 1010.9 |
| 20260505021550 | 72 | 182 | 19.0 | 26.0 | 0.00 | 0.01 | 0.01 | 79 | 1010.8 |
| 20260505020050 | 73 | 185 | 19.0 | 25.0 | 0.00 | 0.01 | 0.01 | 78 | 1010.6 |
| 20260505014602 | 73 | 196 | 19.0 | 26.0 | 0.00 | 0.01 | 0.01 | 78 | 1010.5 |
| 20260505013047 | 73 | 180 | 17.0 | 23.0 | 0.00 | 0.01 | 0.01 | 77 | 1010.6 |
| 20260505011551 | 73 | 178 | 18.0 | 25.0 | 0.00 | 0.01 | 0.01 | 77 | 1010.5 |
| 20260505010045 | 73 | 174 | 20.0 | 27.0 | 0.00 | 0.01 | 0.01 | 75 | 1010.4 |
| 20260505004556 | 74 | 194 | 20.0 | 26.0 | 0.00 | 0.01 | 0.01 | 76 | 1010.6 |
| 20260505003047 | 74 | 180 | 20.0 | 25.0 | 0.00 | 0.01 | 0.01 | 74 | 1010.6 |
| 20260505001548 | 74 | 174 | 19.0 | 27.0 | 0.00 | 0.01 | 0.01 | 75 | 1010.7 |
| 20260505000057 | 75 | 182 | 17.0 | 26.0 | 0.00 | 0.01 | 0.01 | 73 | 1010.7 |
| 20260504234553 | 75 | 180 | 17.0 | 23.0 | 0.00 | 0.01 | 0.01 | 74 | 1010.5 |
| 20260504233052 | 75 | 190 | 19.0 | 29.0 | 0.00 | 0.01 | 0.01 | 73 | 1010.7 |
| 20260504231547 | 76 | 174 | 16.0 | 25.0 | 0.00 | 0.01 | 0.01 | 73 | 1011.1 |
| 20260504230050 | 76 | 187 | 17.0 | 23.0 | 0.00 | 0.01 | 0.01 | 72 | 1011.0 |
| 20260504224548 | 76 | 169 | 17.0 | 24.0 | 0.00 | 0.01 | 0.01 | 72 | 1011.2 |
| 20260504223054 | 76 | 171 | 19.0 | 25.0 | 0.00 | 0.01 | 0.01 | 71 | 1011.3 |
| 20260504221549 | 76 | 164 | 14.0 | 21.0 | 0.00 | 0.01 | 0.01 | 71 | 1011.4 |
| 20260504220048 | 77 | 182 | 13.0 | 19.0 | 0.00 | 0.01 | 0.01 | 70 | 1011.5 |
| 20260504214554 | 77 | 191 | 12.0 | 20.0 | 0.00 | 0.01 | 0.01 | 67 | 1011.7 |
| 20260504213048 | 77 | 191 | 13.0 | 19.0 | 0.00 | 0.01 | 0.01 | 67 | 1012.0 |
| 20260504211550 | 77 | 182 | 13.0 | 20.0 | 0.00 | 0.01 | 0.01 | 68 | 1012.1 |
| 20260504210059 | 77 | 213 | 11.0 | 18.0 | 0.00 | 0.01 | 0.01 | 64 | 1012.4 |
| 20260504204606 | 77 | 196 | 14.0 | 19.0 | 0.00 | 0.01 | 0.01 | 62 | 1012.4 |
| 20260504203101 | 77 | 199 | 14.0 | 21.0 | 0.00 | 0.01 | 0.01 | 63 | 1012.8 |
| 20260504201550 | 77 | 191 | 12.0 | 16.0 | 0.00 | 0.01 | 0.01 | 66 | 1013.3 |
| 20260504200049 | 78 | 200 | 9.0 | 16.0 | 0.00 | 0.01 | 0.01 | 62 | 1013.3 |
| 20260504194549 | 77 | 196 | 11.0 | 17.0 | 0.00 | 0.01 | 0.01 | 62 | 1013.7 |
| 20260504193057 | 77 | 215 | 12.0 | 19.0 | 0.00 | 0.01 | 0.01 | 61 | 1013.7 |
| 20260504191557 | 77 | 201 | 12.0 | 21.0 | 0.00 | 0.01 | 0.01 | 61 | 1013.9 |
| 20260504190054 | 77 | 207 | 12.0 | 14.0 | 0.00 | 0.01 | 0.01 | 59 | 1014.1 |
| 20260504184549 | 76 | 188 | 10.0 | 16.0 | 0.00 | 0.01 | 0.01 | 60 | 1014.2 |
| 20260504183047 | 76 | 195 | 12.0 | 17.0 | 0.00 | 0.01 | 0.01 | 62 | 1014.4 |
| 20260504181553 | 75 | 200 | 13.0 | 20.0 | 0.00 | 0.01 | 0.01 | 61 | 1014.6 |
| 20260504180106 | 75 | 209 | 11.0 | 15.0 | 0.00 | 0.01 | 0.01 | 62 | 1014.7 |
| 20260504174547 | 75 | 205 | 12.0 | 20.0 | 0.00 | 0.01 | 0.01 | 63 | 1015.1 |
| 20260504173109 | 74 | 200 | 13.0 | 20.0 | 0.00 | 0.01 | 0.01 | 63 | 1015.2 |
| 20260504171551 | 74 | 192 | 10.0 | 16.0 | 0.00 | 0.01 | 0.01 | 63 | 1015.3 |